Date,TemperatureHighF,TemperatureAvgF,TemperatureLowF,DewpointHighF,DewpointAvgF,DewpointLowF,HumidityHigh,HumidityAvg,HumidityLow,PressureMaxIn,PressureMinIn,WindSpeedMaxMPH,WindSpeedAvgMPH,GustSpeedMaxMPH,PrecipitationSumIn
2013-1-1,26,17,11,15,9,4,76,71,58,30.44,30.31,9,3,9,0.00
2013-1-2,16,14,12,9,7,5,74,73,70,30.40,30.29,5,2,5,0.00
2013-1-3,25,15,9,12,6,0,73,66,55,30.30,30.15,8,2,9,0.00
2013-1-4,39,27,16,22,12,3,65,55,43,30.29,30.17,11,3,11,0.02
2013-1-5,28,23,17,21,15,6,79,71,60,30.19,30.10,7,2,7,0.00
2013-1-6,40,30,19,28,22,12,79,70,60,30.14,30.03,11,3,11,0.05
2013-1-7,50,40,32,36,29,21,77,65,55,30.11,29.96,15,4,15,0.00
2013-1-8,53,44,38,37,33,29,76,64,51,30.11,29.94,15,4,15,0.00
2013-1-9,49,39,27,32,26,15,74,59,45,29.94,29.71,17,5,21,0.01
2013-1-10,32,26,18,24,16,8,79,67,58,29.94,29.84,5,1,5,0.00
2013-1-11,30,21,11,15,9,1,70,59,43,30.14,29.92,9,2,11,0.00
2013-1-12,26,14,7,9,2,-4,65,56,41,30.22,30.12,11,3,11,0.00
2013-1-13,28,14,3,8,-1,-8,61,51,29,30.30,30.20,8,2,8,0.00
2013-1-14,37,23,11,11,5,-3,59,46,29,30.35,30.24,10,4,10,0.01
2013-1-15,46,30,17,23,14,5,63,53,39,30.49,30.35,11,3,11,0.00
2013-1-16,52,34,24,20,14,9,63,45,22,30.50,30.38,12,4,12,0.00
2013-1-17,49,34,24,21,16,10,64,49,28,30.40,30.29,10,2,11,0.00
2013-1-18,41,29,26,19,12,10,59,50,39,30.31,30.27,8,3,8,0.00
2013-1-19,53,34,20,20,15,10,64,48,22,30.32,30.23,10,2,11,0.00
2013-1-20,50,32,22,22,15,9,70,52,23,30.35,30.24,8,2,9,0.00
2013-1-21,50,32,21,23,14,7,72,51,20,30.25,30.11,16,4,16,0.00
2013-1-22,35,24,13,22,15,6,79,70,59,30.14,29.99,8,2,8,0.00
2013-1-23,53,32,23,36,25,17,85,75,42,30.07,29.82,17,2,17,0.00
2013-1-24,54,41,30,38,33,26,89,73,48,30.12,30.03,11,2,11,0.00
2013-1-25,48,44,39,42,38,35,92,81,72,30.09,29.88,12,4,12,0.11
2013-1-26,43,34,27,35,26,18,88,71,48,29.96,29.86,10,2,11,0.02
2013-1-27,41,31,23,26,21,16,79,66,43,30.02,29.76,11,3,13,0.00
2013-1-28,38,35,30,28,25,22,83,66,58,30.04,29.94,21,5,21,0.00
2013-1-29,44,40,35,31,29,27,73,66,58,30.31,30.02,21,6,21,0.00
2013-1-30,52,41,35,36,30,26,74,66,52,30.34,30.29,15,3,15,0.00
2013-1-31,49,39,29,35,29,24,83,69,52,30.31,30.21,8,2,8,0.00
2013-2-1,51,37,26,34,27,20,83,70,41,30.32,30.22,8,2,9,0.00
2013-2-2,50,34,23,32,26,17,83,71,51,30.34,30.20,8,2,8,0.00
2013-2-3,55,40,27,33,27,20,82,60,28,30.21,30.09,9,2,9,0.00
2013-2-4,53,42,33,31,28,24,71,57,39,30.10,29.88,7,2,8,0.00
2013-2-5,50,40,32,34,26,21,71,57,38,29.99,29.85,12,2,12,0.00
2013-2-6,48,39,30,27,24,21,72,56,35,30.04,29.84,11,3,11,0.00
2013-2-7,42,35,26,27,22,15,73,59,41,29.99,29.84,10,2,10,0.00
2013-2-8,41,29,17,24,16,10,76,60,38,30.09,29.99,13,2,13,0.00
2013-2-9,44,30,17,28,19,8,79,63,51,30.14,30.05,11,2,11,0.00
2013-2-10,48,34,22,30,21,14,81,61,32,30.20,30.13,8,2,11,0.00
2013-2-11,49,34,21,32,22,12,76,61,36,30.25,30.12,15,3,42,0.00
2013-2-12,50,37,28,33,26,20,79,64,43,30.33,30.24,16,3,16,0.00
2013-2-13,46,36,28,32,27,22,80,70,53,30.36,30.28,12,2,12,0.00
2013-2-14,54,39,25,36,29,20,82,69,47,30.43,30.35,9,3,10,0.00
2013-2-15,59,41,27,39,31,21,84,69,40,30.41,30.19,11,2,11,0.00
2013-2-16,54,40,29,35,27,19,79,63,42,30.20,30.07,20,4,20,0.00
2013-2-17,45,33,22,24,18,14,72,56,29,30.13,29.99,8,2,8,0.00
2013-2-18,42,32,24,24,19,14,73,59,42,29.99,29.69,9,2,9,0.00
2013-2-19,43,31,20,24,18,12,72,60,41,29.87,29.63,11,2,11,0.00
2013-2-20,44,32,21,24,19,13,74,59,37,29.97,29.87,15,3,16,0.00
2013-2-21,41,34,25,24,21,16,73,59,44,30.08,29.96,11,3,14,0.00
2013-2-22,48,37,29,33,26,21,74,64,47,30.07,29.80,15,4,20,0.01
2013-2-23,41,32,26,24,19,15,72,57,43,30.26,29.94,16,4,17,0.00
2013-2-24,49,34,20,24,18,10,67,54,35,30.29,29.99,13,3,118,0.00
2013-2-25,45,37,26,31,23,16,72,57,40,30.22,29.94,17,4,17,0.00
2013-2-26,50,35,21,19,12,1,66,43,16,30.26,30.13,15,4,15,0.00
2013-2-27,51,39,26,32,23,11,63,53,39,30.23,30.16,11,3,11,0.00
2013-2-28,57,48,39,39,36,28,80,63,51,30.39,30.16,11,3,11,0.00
2013-3-1,64,48,35,38,34,30,84,60,31,30.40,30.25,10,3,12,0.00
2013-3-2,58,46,38,38,34,24,84,66,28,30.25,30.05,11,3,13,0.00
2013-3-3,48,37,25,34,17,0,78,50,15,30.16,30.04,11,3,13,0.00
2013-3-4,53,34,17,20,14,6,75,48,19,30.14,29.90,16,3,16,0.00
2013-3-5,43,34,26,30,22,15,88,63,50,29.91,29.64,11,2,11,0.00
2013-3-6,46,35,31,41,29,22,99,80,55,29.89,29.50,14,3,14,0.06
2013-3-7,48,36,24,32,23,16,82,61,36,29.98,29.89,16,4,17,0.00
2013-3-8,50,35,26,36,25,17,88,68,41,30.12,29.93,10,2,25,0.02
2013-3-9,57,38,20,28,16,6,76,49,14,30.37,30.11,8,2,12,0.00
2013-3-10,61,42,26,40,25,12,78,53,15,30.39,30.26,17,5,17,0.00
2013-3-11,57,47,35,42,38,31,92,73,53,30.31,30.17,16,3,16,0.00
2013-3-12,63,48,36,41,34,25,94,63,27,30.19,30.07,9,3,25,0.00
2013-3-13,71,52,41,38,33,27,72,52,24,30.17,30.08,8,2,8,0.00
2013-3-14,69,53,40,36,30,10,76,46,11,30.15,30.01,11,3,13,0.00
2013-3-15,62,48,35,40,34,29,84,61,32,30.17,30.09,17,3,17,0.00
2013-3-16,56,41,29,37,30,26,92,69,35,30.10,29.89,18,4,18,0.04
2013-3-17,43,35,28,28,21,16,80,57,41,30.14,29.98,18,5,24,0.00
2013-3-18,55,37,20,28,17,6,78,52,14,30.14,30.05,11,2,14,0.00
2013-3-19,50,38,28,43,26,15,96,64,39,30.10,29.74,9,2,10,0.04
2013-3-20,52,44,31,42,35,23,91,71,41,30.02,29.60,21,6,25,0.09
2013-3-21,45,34,27,26,21,14,76,58,40,30.13,30.02,20,5,20,0.00
2013-3-22,42,32,23,24,18,8,83,57,25,30.23,30.10,17,4,17,0.00
2013-3-23,46,34,24,23,16,6,72,51,20,30.23,30.12,11,2,11,0.00
2013-3-24,50,36,23,27,20,12,69,54,32,30.17,30.04,13,3,13,0.00
2013-3-25,52,42,31,32,27,23,72,56,40,30.05,29.88,11,3,12,0.00
2013-3-26,53,44,37,39,35,31,86,71,53,29.95,29.89,9,3,11,0.00
2013-3-27,61,46,32,48,37,30,95,76,35,29.96,29.86,12,3,13,0.08
2013-3-28,61,48,40,47,42,39,99,83,49,30.09,29.96,11,2,11,0.06
2013-3-29,64,51,40,47,43,39,99,76,42,30.17,30.09,10,2,10,0.01
2013-3-30,71,53,34,45,41,32,99,67,36,30.19,30.02,14,3,14,0.00
2013-3-31,69,53,34,43,38,32,97,62,32,30.04,29.88,17,4,17,0.00
2013-4-1,68,51,37,48,41,35,99,72,39,30.09,29.94,15,3,15,0.00
2013-4-2,66,50,33,43,38,31,98,68,34,30.14,30.06,15,3,16,0.00
2013-4-3,71,53,34,41,33,12,95,55,10,30.13,29.94,17,3,17,0.00
2013-4-4,68,53,44,45,40,36,94,63,33,29.94,29.71,17,4,21,0.06
2013-4-5,60,50,43,42,38,34,91,65,40,29.94,29.87,15,4,15,0.00
2013-4-6,54,47,41,42,38,31,92,71,44,29.95,29.76,16,4,16,0.01
2013-4-7,53,44,34,38,32,21,79,62,31,29.83,29.63,21,6,21,0.00
2013-4-8,50,40,32,30,26,24,77,60,39,30.17,29.83,16,4,16,0.00
2013-4-9,61,44,24,36,26,10,84,56,14,30.26,30.17,10,2,11,0.00
2013-4-10,65,49,37,45,36,29,76,61,40,30.20,30.06,23,5,25,0.00
2013-4-11,56,42,26,34,26,21,86,58,30,30.19,30.07,15,4,15,0.00
2013-4-12,65,45,27,35,25,9,80,53,12,30.09,29.74,15,4,25,0.00
2013-4-13,48,41,33,34,24,15,65,51,29,29.99,29.74,30,8,30,0.00
2013-4-14,47,36,26,31,22,16,94,60,31,29.99,29.81,12,3,13,0.00
2013-4-15,44,34,30,38,32,29,99,91,67,30.04,29.82,16,2,19,0.15
2013-4-16,48,37,30,35,28,18,99,72,34,30.27,30.04,17,4,17,0.01
2013-4-17,53,39,22,30,22,8,88,57,18,30.36,30.27,15,3,46,0.00
2013-4-18,63,48,32,41,34,25,77,60,37,30.33,30.23,11,3,60,0.00
2013-4-19,61,50,42,47,40,36,91,70,43,30.24,30.08,23,5,23,0.04
2013-4-20,61,47,34,39,32,28,89,60,30,30.20,30.13,17,4,17,0.00
2013-4-21,63,47,31,41,35,27,85,66,40,30.17,30.10,17,4,21,0.00
2013-4-22,57,46,34,35,23,7,89,48,16,30.34,30.17,15,5,17,0.00
2013-4-23,65,45,23,22,11,4,60,31,10,30.33,30.06,19,4,25,0.00
2013-4-24,70,50,27,26,14,8,55,28,10,30.25,30.00,11,3,11,0.00
2013-4-25,75,56,34,34,23,9,63,32,10,30.12,29.99,16,4,17,0.00
2013-4-26,81,61,39,41,28,12,70,37,10,30.23,30.12,15,4,17,0.00
2013-4-27,76,60,41,39,27,10,70,37,10,30.23,30.11,19,5,19,0.00
2013-4-28,66,55,43,40,32,21,65,43,20,30.18,30.04,18,5,19,0.00
2013-4-29,61,51,36,41,32,22,71,50,28,30.05,29.95,22,6,22,0.00
2013-4-30,54,40,26,29,20,12,75,48,19,30.32,30.04,21,4,21,0.00
2013-5-1,65,46,24,26,17,7,70,38,11,30.45,30.31,15,4,17,0.00
2013-5-2,78,57,32,28,19,9,57,28,10,30.45,30.21,16,4,17,0.00
2013-5-3,74,59,39,32,26,13,60,32,11,30.25,30.14,17,4,17,0.00
2013-5-4,71,57,37,37,29,19,71,38,16,30.17,29.94,28,8,30,0.00
2013-5-5,76,61,41,36,31,24,69,37,17,29.94,29.78,21,6,26,0.00
2013-5-6,84,66,44,42,32,17,79,35,10,29.88,29.76,19,4,19,0.01
2013-5-7,82,66,47,48,40,18,84,46,10,29.97,29.83,15,4,15,0.00
2013-5-8,84,64,47,52,42,18,86,51,10,30.08,29.96,22,3,22,0.00
2013-5-9,86,67,49,52,45,28,82,52,12,30.14,30.05,34,4,34,0.00
2013-5-10,90,69,48,52,44,24,89,47,10,30.19,30.09,13,4,13,0.00
2013-5-11,91,73,55,54,48,31,78,47,12,30.20,30.03,14,3,14,0.00
2013-5-12,85,70,54,55,49,40,91,51,23,30.10,30.00,17,4,17,0.00
2013-5-13,70,58,44,52,44,36,92,62,34,30.14,30.01,18,4,18,0.00
2013-5-14,70,54,36,44,35,24,99,55,21,30.14,30.00,13,3,17,0.00
2013-5-15,68,53,42,50,39,33,80,61,29,30.06,29.96,15,4,16,0.01
2013-5-16,65,51,41,48,42,37,97,75,38,30.00,29.86,13,3,13,0.11
2013-5-17,63,51,42,46,40,35,97,68,38,30.04,29.92,15,4,15,0.01
2013-5-18,63,49,37,43,38,34,94,68,39,30.20,30.04,17,4,17,0.00
2013-5-19,68,52,35,43,37,32,93,60,32,30.28,30.20,12,3,12,0.00
2013-5-20,78,58,34,46,31,13,97,48,10,30.26,29.88,15,3,15,0.00
2013-5-21,61,49,36,42,34,23,82,58,26,29.90,29.73,17,5,18,0.01
2013-5-22,50,40,30,37,30,22,91,68,54,29.92,29.88,12,3,12,0.02
2013-5-23,61,46,30,38,30,20,90,59,23,29.98,29.89,13,4,13,0.04
2013-5-24,61,48,37,44,35,27,99,64,28,30.01,29.92,16,4,16,0.00
2013-5-25,68,52,31,47,34,27,92,58,22,30.01,29.90,11,3,11,0.04
2013-5-26,64,53,45,50,43,36,99,73,38,30.01,29.92,15,4,15,0.12
2013-5-27,61,51,42,52,44,37,95,79,55,29.99,29.77,13,4,13,0.19
2013-5-28,67,56,44,47,41,33,97,61,31,29.89,29.75,17,4,17,0.01
2013-5-29,62,53,45,49,42,36,99,69,41,29.99,29.68,21,6,21,0.15
2013-5-30,64,51,38,41,35,30,95,58,29,30.17,29.98,17,4,17,0.00
2013-5-31,73,55,34,40,34,19,89,52,16,30.24,30.15,10,4,11,0.00
2013-6-1,124,62,40,48,38,12,97,49,10,30.19,29.99,15,4,15,0.00
2013-6-2,74,60,46,50,41,26,93,55,19,30.04,29.94,17,4,18,0.00
2013-6-3,78,61,38,44,32,13,98,43,10,30.06,29.96,15,4,15,0.00
2013-6-4,82,65,43,42,31,17,61,34,10,30.09,30.01,12,4,13,0.00
2013-6-5,88,70,45,51,40,23,87,40,10,30.09,29.96,15,4,15,0.00
2013-6-6,89,72,52,51,45,25,77,43,11,30.04,29.93,14,4,24,0.00
2013-6-7,86,70,50,52,47,39,93,48,22,30.09,30.00,17,5,17,0.00
2013-6-8,90,71,49,50,38,17,84,41,10,30.10,30.00,14,4,14,0.00
2013-6-9,86,68,49,50,38,19,93,40,10,30.04,29.88,17,4,17,0.00
2013-6-10,80,62,41,41,30,13,74,38,10,29.93,29.77,15,4,15,0.00
2013-6-11,65,54,43,44,37,30,96,56,28,30.07,29.88,19,5,19,0.00
2013-6-12,68,52,36,40,35,30,86,56,26,30.09,30.02,24,4,24,0.00
2013-6-13,62,50,37,43,38,34,96,65,37,30.21,30.09,17,4,19,0.00
2013-6-14,75,58,36,41,30,11,92,46,10,30.22,29.98,12,4,48,0.00
2013-6-15,86,65,39,49,36,18,89,42,10,29.99,29.86,13,4,13,0.00
2013-6-16,86,66,52,51,46,35,79,51,19,30.09,29.95,16,4,46,0.00
2013-6-17,80,64,46,54,46,38,96,57,23,30.09,29.89,15,4,15,0.08
2013-6-18,66,56,49,52,44,37,84,65,41,29.97,29.86,14,4,53,0.02
2013-6-19,64,53,44,42,39,36,82,62,37,30.05,29.89,21,6,24,0.00
2013-6-20,68,54,41,41,37,27,87,58,23,30.09,29.99,15,4,15,0.00
2013-6-21,64,54,44,48,42,39,98,67,42,30.11,30.07,11,3,11,0.01
2013-6-22,80,62,39,48,39,32,93,50,19,30.10,29.88,15,4,21,0.00
2013-6-23,66,60,54,58,52,41,99,78,42,29.90,29.70,9,2,10,0.28
2013-6-24,65,56,49,56,51,47,99,84,59,29.76,29.67,9,2,9,0.19
2013-6-25,66,59,52,53,50,46,96,74,52,29.91,29.73,14,3,14,0.04
2013-6-26,71,61,52,58,53,50,96,78,54,30.08,29.90,11,2,11,0.01
2013-6-27,86,69,49,59,54,49,99,65,33,30.19,30.06,13,4,14,0.00
2013-6-28,94,77,56,61,56,49,94,55,24,30.22,30.04,13,4,13,0.00
2013-6-29,91,78,61,62,58,54,96,54,30,30.10,30.01,15,4,15,0.00
2013-6-30,98,80,59,60,57,54,86,49,24,30.07,29.90,17,4,17,0.00
2013-7-1,100,84,65,64,58,52,79,45,21,30.07,29.95,51,4,51,0.00
2013-7-2,102,83,65,65,59,38,83,49,12,30.09,30.00,17,3,17,0.00
2013-7-3,94,77,60,60,54,38,94,49,22,30.10,29.99,17,4,17,0.00
2013-7-4,86,71,54,48,37,24,69,34,11,30.06,29.93,17,4,17,0.00
2013-7-5,81,65,45,46,34,11,92,40,10,29.98,29.88,15,4,15,0.00
2013-7-6,86,66,42,48,31,18,66,33,10,29.95,29.81,16,4,16,0.00
2013-7-7,89,71,49,52,46,36,96,47,16,29.95,29.81,16,4,16,0.00
2013-7-8,88,71,52,50,39,23,87,41,10,30.07,29.94,11,3,14,0.00
2013-7-9,96,76,50,53,44,30,83,39,10,30.11,29.96,13,4,15,0.00
2013-7-10,94,77,58,55,46,27,78,40,10,30.05,29.88,15,4,17,0.00
2013-7-11,86,69,50,50,39,20,90,40,12,29.99,29.88,16,4,16,0.00
2013-7-12,81,64,46,41,31,16,66,34,10,30.05,29.91,20,4,20,0.00
2013-7-13,82,64,42,45,32,14,95,40,10,30.13,30.01,14,4,16,0.00
2013-7-14,92,71,48,48,30,15,50,26,10,30.12,29.92,13,4,15,0.00
2013-7-15,90,72,48,46,36,24,87,34,10,30.01,29.85,17,4,18,0.00
2013-7-16,86,72,59,51,39,34,46,32,18,29.98,29.86,15,4,15,0.00
2013-7-17,91,74,51,46,39,24,80,34,10,30.14,29.97,13,4,53,0.00
2013-7-18,95,75,52,50,38,23,70,34,10,30.17,30.01,14,3,15,0.00
2013-7-19,96,77,51,44,32,15,76,26,10,30.11,29.96,12,4,14,0.00
2013-7-20,97,77,54,45,28,9,68,22,10,30.03,29.90,14,4,14,0.00
2013-7-21,98,76,48,43,30,13,56,22,10,29.96,29.86,15,4,15,0.00
2013-7-22,96,76,52,45,34,23,62,29,10,30.01,29.93,14,4,14,0.00
2013-7-23,99,78,52,46,34,20,67,26,10,30.05,29.93,12,3,12,0.00
2013-7-24,95,78,60,51,38,23,60,29,10,30.06,29.97,9,3,11,0.00
2013-7-25,99,79,52,50,37,14,80,30,10,30.09,30.00,15,4,15,0.00
2013-7-26,99,80,60,33,27,16,33,16,10,30.12,30.02,17,4,17,0.00
2013-7-27,88,72,50,43,32,18,66,28,10,30.12,29.95,15,4,15,0.00
2013-7-28,86,68,48,43,33,17,70,34,10,29.99,29.88,15,4,17,0.00
2013-7-29,86,68,45,48,38,20,88,41,10,30.01,29.88,13,3,13,0.00
2013-7-30,90,71,50,51,38,19,82,40,10,30.10,30.01,12,3,15,0.00
2013-7-31,86,70,54,51,44,19,83,44,10,30.09,29.97,16,3,16,0.00
2013-8-1,77,62,53,59,51,42,97,69,30,30.06,29.96,19,4,19,0.02
2013-8-2,80,62,43,49,43,27,99,57,16,30.10,30.01,11,3,11,0.00
2013-8-3,86,68,46,48,38,19,84,43,10,30.10,29.98,14,4,14,0.00
2013-8-4,91,73,48,52,44,28,94,43,12,30.07,29.91,15,3,15,0.00
2013-8-5,92,74,55,54,46,25,74,42,10,30.04,29.93,13,3,13,0.00
2013-8-6,95,75,49,52,43,24,94,41,10,30.04,29.91,14,3,15,0.00
2013-8-7,88,72,56,47,43,24,68,38,10,30.04,29.96,14,3,14,0.00
2013-8-8,88,73,51,57,45,27,91,44,11,30.01,29.90,59,2,59,0.00
2013-8-9,88,70,57,55,50,41,84,51,19,29.99,29.85,16,3,16,0.00
2013-8-10,80,62,48,56,51,47,99,69,33,30.05,29.95,14,3,15,0.00
2013-8-11,82,66,52,52,48,39,88,57,24,30.07,29.96,12,3,13,0.00
2013-8-12,87,69,49,54,49,38,99,56,22,30.05,29.95,12,3,15,0.00
2013-8-13,91,72,51,52,47,34,88,48,15,30.09,29.94,13,3,13,0.00
2013-8-14,92,73,50,53,48,32,96,47,14,30.01,29.90,14,3,48,0.00
2013-8-15,91,72,54,56,49,41,78,49,18,30.06,29.90,15,3,15,0.00
2013-8-16,88,71,54,66,56,52,99,63,30,30.06,29.97,17,3,17,0.08
2013-8-17,89,71,56,59,54,48,94,60,29,30.09,29.98,17,4,17,0.00
2013-8-18,90,71,49,56,50,40,99,55,18,30.13,30.01,12,3,13,0.00
2013-8-19,92,72,52,52,48,42,82,49,18,30.11,29.99,15,4,15,0.00
2013-8-20,88,70,49,55,36,13,99,41,10,30.11,29.97,11,3,12,0.00
2013-8-21,87,70,51,44,34,20,53,31,10,30.06,29.95,11,3,13,0.00
2013-8-22,84,66,50,61,48,36,93,58,21,30.00,29.92,17,2,17,0.07
2013-8-23,84,68,53,55,51,45,91,59,28,29.94,29.84,15,4,15,0.00
2013-8-24,82,64,51,58,52,42,99,69,26,29.92,29.80,13,3,58,0.13
2013-8-25,77,60,53,62,55,51,99,87,47,29.97,29.82,15,3,16,0.70
2013-8-26,78,63,51,56,51,46,99,70,36,29.98,29.92,11,4,11,0.00
2013-8-27,86,66,48,54,50,39,99,63,22,29.99,29.80,12,3,13,0.00
2013-8-28,88,70,51,57,51,38,99,58,18,29.94,29.84,12,4,13,0.00
2013-8-29,86,69,58,57,54,45,89,62,29,30.09,29.92,13,3,15,0.00
2013-8-30,84,68,52,58,53,46,99,62,30,30.16,30.01,12,4,15,0.00
2013-8-31,90,70,52,56,53,46,97,60,25,30.08,29.88,15,3,15,0.00
2013-9-1,94,74,52,55,46,25,96,47,10,29.93,29.77,14,4,15,0.00
2013-9-2,88,69,53,56,51,41,91,59,20,29.94,29.82,14,3,14,0.00
2013-9-3,86,67,50,55,50,37,99,63,20,30.01,29.90,13,3,14,0.00
2013-9-4,87,67,49,55,49,32,92,60,15,30.03,29.91,14,3,14,0.00
2013-9-5,77,59,49,55,50,44,99,74,39,30.06,29.89,17,3,20,0.00
2013-9-6,70,59,50,55,49,45,98,71,46,30.13,30.04,15,3,15,0.04
2013-9-7,81,62,43,52,49,43,99,66,30,30.12,29.96,14,3,14,0.00
2013-9-8,78,64,48,54,49,44,97,64,31,30.09,30.03,13,3,16,0.00
2013-9-9,86,68,46,50,45,36,97,50,19,30.07,29.94,12,3,12,0.00
2013-9-10,88,70,50,50,45,40,78,46,20,30.02,29.91,15,3,15,0.00
2013-9-11,90,71,48,54,47,41,96,48,19,30.07,29.96,13,3,13,0.00
2013-9-12,92,74,52,53,46,39,74,42,16,30.04,29.91,11,3,13,0.00
2013-9-13,86,70,50,52,47,42,89,46,26,29.97,29.84,11,2,11,0.00
2013-9-14,91,72,54,54,49,40,80,49,18,29.90,29.77,13,3,13,0.00
2013-9-15,90,70,53,56,47,25,98,53,10,29.88,29.67,17,4,17,0.00
2013-9-16,72,60,47,49,46,43,90,63,38,29.95,29.88,14,4,14,0.00
2013-9-17,63,53,48,53,46,41,99,79,54,29.98,29.82,14,3,14,0.11
2013-9-18,68,55,46,45,40,30,84,60,26,30.06,29.97,10,2,11,0.00
2013-9-19,82,63,36,46,33,16,99,43,10,30.05,29.82,20,5,20,0.00
2013-9-20,79,59,40,49,37,18,86,53,10,29.85,29.62,15,4,16,0.02
2013-9-21,68,55,46,47,44,38,97,67,37,29.79,29.68,11,3,11,0.05
2013-9-22,64,50,39,53,43,39,99,79,49,29.86,29.72,16,3,17,0.07
2013-9-23,64,53,42,46,43,39,99,70,46,29.97,29.85,13,4,13,0.01
2013-9-24,56,48,41,49,44,40,99,85,58,29.95,29.81,13,3,14,0.24
2013-9-25,54,44,39,44,40,37,99,87,58,29.95,29.79,14,2,14,0.13
2013-9-26,57,44,31,43,37,31,99,78,48,30.11,29.95,14,3,14,0.00
2013-9-27,62,47,31,48,37,22,99,73,22,30.12,29.96,11,3,12,0.04
2013-9-28,64,57,47,51,47,43,96,70,48,29.98,29.62,21,7,21,0.24
2013-9-29,56,49,42,50,44,37,99,82,58,29.77,29.53,15,5,17,0.25
2013-9-30,56,48,38,50,38,34,96,70,46,29.98,29.60,15,4,19,0.06
2013-10-1,52,43,34,45,36,30,99,78,56,30.14,29.96,17,3,17,0.02
2013-10-2,53,39,28,37,32,25,92,77,49,30.14,29.98,14,3,14,0.02
2013-10-3,54,41,31,43,34,30,99,78,47,30.35,30.07,12,2,12,0.02
2013-10-4,61,44,29,40,32,27,92,69,30,30.43,30.32,10,2,10,0.00
2013-10-5,77,51,31,38,29,11,91,54,10,30.36,30.17,13,3,13,0.00
2013-10-6,76,55,34,36,28,12,78,44,10,30.20,29.96,14,3,15,0.00
2013-10-7,59,50,42,43,35,23,79,59,32,30.06,29.93,19,4,19,0.00
2013-10-8,50,42,34,40,35,29,90,76,58,30.06,29.91,8,2,9,0.01
2013-10-9,48,40,34,39,36,31,99,84,67,30.02,29.91,12,3,12,0.01
2013-10-10,59,45,33,39,35,31,96,71,40,30.02,29.88,11,2,12,0.00
2013-10-11,56,43,29,40,35,28,99,74,47,30.08,29.99,10,2,10,0.00
2013-10-12,51,41,33,40,36,31,94,81,55,30.10,29.98,11,2,11,0.00
2013-10-13,53,45,34,42,39,32,99,82,54,30.25,30.08,8,2,8,0.00
2013-10-14,57,42,28,40,32,25,95,70,42,30.32,30.23,13,3,15,0.00
2013-10-15,63,42,26,35,28,21,86,62,28,30.33,30.13,8,3,10,0.00
2013-10-16,63,46,32,35,29,22,75,54,23,30.14,30.06,12,3,12,0.00
2013-10-17,61,45,30,39,33,27,96,66,33,30.22,30.14,9,2,11,0.00
2013-10-18,64,45,30,40,34,27,92,69,34,30.24,30.13,8,2,8,0.00
2013-10-19,75,51,31,36,30,12,94,54,10,30.16,30.05,9,2,9,0.00
2013-10-20,70,50,34,38,32,26,74,54,21,30.17,30.09,8,2,8,0.00
2013-10-21,71,52,34,42,36,30,99,60,25,30.17,30.07,8,2,9,0.00
2013-10-22,71,51,35,41,36,30,85,60,28,30.16,30.03,10,2,10,0.00
2013-10-23,67,50,34,43,38,31,99,67,37,30.10,30.00,11,2,11,0.00
2013-10-24,68,49,34,45,39,32,97,72,36,30.10,30.01,10,2,10,0.00
2013-10-25,70,51,36,40,37,28,99,65,22,30.22,30.10,9,2,10,0.00
2013-10-26,66,48,32,41,35,27,86,64,33,30.24,30.07,11,3,11,0.00
2013-10-27,52,40,32,47,37,32,99,90,58,30.09,29.73,15,4,15,0.20
2013-10-28,42,36,32,41,29,21,99,75,58,29.90,29.74,20,6,20,0.02
2013-10-29,49,35,24,26,21,17,76,59,35,30.00,29.88,7,2,7,0.00
2013-10-30,59,40,25,35,28,19,83,65,33,30.11,29.99,9,3,9,0.00
2013-10-31,61,48,37,48,40,31,98,76,60,30.21,30.09,14,3,14,0.00
2013-11-1,63,45,32,44,38,32,99,81,45,30.23,29.92,12,3,12,0.00
2013-11-2,53,44,32,44,35,27,93,72,52,30.00,29.74,17,6,20,0.02
2013-11-3,45,36,28,31,28,23,88,74,47,30.05,29.96,15,2,15,0.00
2013-11-4,50,41,34,34,31,29,85,70,51,30.11,30.00,11,3,12,0.00
2013-11-5,51,44,37,46,40,31,97,85,72,30.18,30.05,11,4,14,0.04
2013-11-6,59,47,38,48,43,37,99,88,65,30.24,30.09,8,2,8,0.00
2013-11-7,57,46,33,48,38,26,97,74,60,30.09,29.88,18,5,23,0.09
2013-11-8,47,40,32,34,31,27,86,72,56,30.12,30.05,7,2,9,0.00
2013-11-9,44,36,27,36,31,23,92,83,71,30.06,30.01,6,2,6,0.00
2013-11-10,61,43,33,43,37,31,95,79,46,30.13,30.03,8,2,8,0.00
2013-11-11,42,40,35,41,38,33,99,93,84,30.23,30.12,5,2,5,0.01
2013-11-12,61,46,37,47,40,34,95,80,50,30.33,30.14,10,2,12,0.00
2013-11-13,54,40,30,43,33,24,95,76,45,30.38,30.19,10,2,10,0.00
2013-11-14,48,36,28,31,26,20,81,68,50,30.19,29.98,11,3,14,0.00
2013-11-15,45,34,22,32,24,16,81,68,44,29.98,29.54,9,2,9,0.00
2013-11-16,47,41,37,32,29,26,72,62,47,29.80,29.47,18,5,18,0.00
2013-11-17,52,41,31,31,28,24,75,61,41,29.96,29.79,12,2,12,0.00
2013-11-18,52,44,33,37,31,25,74,61,45,29.95,29.76,15,5,15,0.00
2013-11-19,52,46,42,43,39,35,93,77,66,29.81,29.73,15,4,15,0.07
2013-11-20,42,31,18,40,14,-8,93,52,25,30.27,29.81,16,4,16,0.00
2013-11-21,32,21,11,3,-2,-6,48,37,20,30.52,30.27,8,2,8,0.00
2013-11-22,34,20,8,10,2,-8,59,46,28,30.55,30.45,7,2,8,0.00
2013-11-23,35,20,8,14,6,-3,64,53,39,30.45,30.21,4,1,4,0.00
2013-11-24,52,28,12,21,12,2,68,51,19,30.25,30.13,7,2,8,0.00
2013-11-25,45,29,16,21,14,6,71,55,35,30.31,30.23,7,2,8,0.00
2013-11-26,45,29,18,24,16,9,72,59,40,30.25,30.09,7,2,7,0.00
2013-11-27,40,29,21,25,18,12,72,64,52,30.09,29.98,8,1,8,0.00
2013-11-28,48,29,16,28,18,9,76,64,42,30.14,30.03,7,2,8,0.00
2013-11-29,55,39,24,29,23,16,73,56,29,30.23,30.13,10,3,10,0.00
2013-11-30,56,44,36,37,33,27,83,66,47,30.29,30.17,7,2,8,0.00
2013-12-1,61,53,41,44,38,32,74,59,44,30.18,29.86,21,6,21,0.00
2013-12-2,50,37,28,40,30,18,93,76,50,29.90,29.77,19,4,20,0.20
2013-12-3,29,22,13,21,12,2,81,65,46,30.10,29.88,17,3,17,0.00
2013-12-4,21,13,3,4,-1,-9,64,53,40,30.16,30.09,10,2,11,0.00
2013-12-5,23,11,0,4,-3,-14,65,53,42,30.15,29.99,9,3,9,0.00
2013-12-6,13,10,8,5,2,0,73,69,65,30.03,29.85,15,4,15,0.00
2013-12-7,9,1,-14,0,-10,-28,69,59,48,30.22,29.88,15,5,18,0.00
2013-12-8,15,0,-15,-3,-15,-28,55,49,43,30.40,30.19,11,3,11,0.00
2013-12-9,30,14,-2,10,-2,-15,63,50,39,30.40,30.27,13,4,14,0.00
2013-12-10,35,22,11,18,10,1,71,59,49,30.31,30.24,8,3,8,0.00
2013-12-11,41,26,11,24,14,3,74,62,48,30.28,30.17,13,4,15,0.00
2013-12-12,39,31,22,23,17,11,67,55,45,30.17,30.03,12,5,15,0.00
2013-12-13,47,34,26,32,25,17,81,69,55,30.35,30.12,9,3,9,0.00
2013-12-14,48,37,27,31,27,20,80,67,50,30.37,30.29,15,4,15,0.00
2013-12-15,57,42,30,40,30,24,84,63,32,30.33,30.25,9,3,9,0.00
2013-12-16,52,37,27,32,26,21,86,67,39,30.36,30.23,9,2,10,0.00
2013-12-17,55,41,27,30,25,19,76,55,32,30.23,30.03,8,3,12,0.00
2013-12-18,43,36,31,33,27,24,87,72,65,30.05,29.87,11,2,11,0.06
2013-12-19,32,26,17,26,12,5,79,55,39,30.16,29.93,0,0,0,0.01
2013-12-20,44,30,19,35,21,7,82,68,50,30.05,29.76,14,4,14,0.00
2013-12-21,50,43,38,35,33,31,78,67,54,30.10,29.78,16,4,16,0.01
2013-12-22,56,42,35,39,32,28,81,69,42,30.27,30.09,11,2,11,0.00
2013-12-23,54,43,35,39,33,28,79,68,53,30.38,30.17,15,4,18,0.00
2013-12-24,45,33,23,32,24,18,84,72,49,30.45,30.37,8,2,8,0.00
2013-12-25,49,36,24,28,23,18,77,61,41,30.39,30.28,11,3,12,0.00
2013-12-26,55,39,28,28,24,18,73,57,31,30.29,30.19,11,3,11,0.00
2013-12-27,46,38,29,27,24,20,74,57,46,30.22,30.09,10,3,11,0.00
2013-12-28,45,31,21,27,20,14,73,63,39,30.37,30.20,7,2,7,0.01
2013-12-29,46,33,22,24,18,13,70,55,29,30.35,30.19,11,3,11,0.00
2013-12-30,48,40,32,27,23,17,67,52,29,30.20,30.10,11,3,14,0.00
2013-12-31,51,41,33,30,26,21,64,56,40,30.25,30.14,10,2,10,0.00
2014-1-1,50,35,25,33,26,18,80,68,52,30.30,30.21,8,2,8,0.00
2014-1-2,55,40,27,34,28,21,83,65,39,30.22,29.96,10,3,11,0.00